User: anonymous   Login
Location: Fort Wayne
(41.1310°N, 85.1290°W)
Time: 04:27:32
(UTC-04:00)
Language:

Cosmos 1980 - Orbit

View from above orbital plane
View from above orbital plane
View from above satellite
View from above satellite

Ground track
Ground track

The orbit data is extracted from the following two-line orbital elements,

1 19649U 88102A   14303.16491702 -.00000195  00000-0 -76636-4 0  8986
2 19649 071.0003 282.7354 0007263 316.6530 043.4020 14.14561485338663
Epoch (UTC): 30 October 2014 03:57:28
Eccentricity: 0.0007263
inclination: 71.0003°
perigee height: 838 km
apogee height: 849 km
right ascension of ascending node: 282.7354°
argument of perigee: 316.6530°
revolutions per day: 14.14561485
mean anomaly at epoch: 43.4020°
orbit number at epoch: 33866

The dashed part of the orbit path shows where the satellite is in the earth's shadow,  

DLR